• en Suisse
  • Liste des pays
  • À 7 jours
  • Température de l'eau
  • Carte satellitaire
  • Carte météo
  • Widgets météo
  • user-avatar
    Se connecter

    Météo par heure à Victoria

    Ce jour, 22 Mai, Mardi

    Heure Température Précipitation Vent Pression Humidité
    00:00 +10°C° 0 mm 3 m/s 755 mmHg 89%
    01:00 +10°C° 0 mm 3 m/s 755 mmHg 91%
    02:00 +10°C° 0 mm 4 m/s 755 mmHg 90%
    03:00 +11°C° 0 mm 4 m/s 755 mmHg 89%
    04:00 +10°C° 0 mm 5 m/s 755 mmHg 86%
    05:00 +11°C° 0 mm 4 m/s 756 mmHg 87%
    06:00 +11°C° 0 mm 4 m/s 756 mmHg 88%
    07:00 +11°C° 0 mm 4 m/s 756 mmHg 89%
    08:00 +12°C° 0 mm 4 m/s 756 mmHg 85%
    09:00 +14°C° 0 mm 5 m/s 756 mmHg 80%
    10:00 +14°C° 0 mm 4 m/s 757 mmHg 76%
    11:00 +15°C° 0 mm 4 m/s 756 mmHg 74%
    12:00 +17°C° 0 mm 4 m/s 756 mmHg 72%
    13:00 +18°C° 0 mm 4 m/s 756 mmHg 71%
    14:00 +17°C° 0 mm 4 m/s 756 mmHg 72%
    15:00 +17°C° 0 mm 4 m/s 756 mmHg 74%
    16:00 +17°C° 0 mm 3 m/s 756 mmHg 75%
    17:00 +16°C° 0 mm 3 m/s 756 mmHg 78%
    18:00 +16°C° 0 mm 3 m/s 756 mmHg 82%
    19:00 +14°C° 0 mm 3 m/s 757 mmHg 85%
    20:00 +13°C° 0 mm 3 m/s 757 mmHg 88%
    21:00 +13°C° 0 mm 3 m/s 757 mmHg 91%
    22:00 +12°C° 0 mm 3 m/s 757 mmHg 94%
    23:00 +12°C° 0 mm 3 m/s 757 mmHg 95%

    Demain, 23 Mai, Mercredi

    Heure Température Précipitation Vent Pression Humidité
    00:00 +12°C° 0 mm 2 m/s 757 mmHg 95%
    01:00 +12°C° 0 mm 2 m/s 757 mmHg 96%
    02:00 +12°C° 0 mm 2 m/s 757 mmHg 96%
    03:00 +10°C° 0 mm 2 m/s 757 mmHg 96%
    04:00 +10°C° 0 mm 2 m/s 757 mmHg 96%
    05:00 +10°C° 0 mm 2 m/s 758 mmHg 96%
    06:00 +10°C° 0 mm 2 m/s 758 mmHg 96%
    07:00 +10°C° 0 mm 2 m/s 758 mmHg 96%
    08:00 +12°C° 0 mm 2 m/s 758 mmHg 89%
    09:00 +13°C° 0 mm 3 m/s 759 mmHg 82%
    10:00 +16°C° 0 mm 3 m/s 759 mmHg 76%
    11:00 +16°C° 0 mm 3 m/s 758 mmHg 73%
    12:00 +17°C° 0 mm 3 m/s 758 mmHg 70%
    13:00 +18°C° 0 mm 3 m/s 757 mmHg 67%
    14:00 +17°C° 0 mm 3 m/s 757 mmHg 68%
    15:00 +17°C° 0 mm 3 m/s 757 mmHg 70%
    16:00 +17°C° 0 mm 2 m/s 757 mmHg 71%
    17:00 +16°C° 0 mm 2 m/s 757 mmHg 74%
    18:00 +15°C° 0 mm 2 m/s 757 mmHg 77%
    19:00 +14°C° 0 mm 2 m/s 758 mmHg 80%
    20:00 +13°C° 0 mm 2 m/s 758 mmHg 83%
    21:00 +12°C° 0 mm 2 m/s 758 mmHg 85%
    22:00 +10°C° 0 mm 2 m/s 758 mmHg 88%
    23:00 +10°C° 0 mm 2 m/s 758 mmHg 91%

    Après-demain, 24 Mai, Jeudi

    Heure Température Précipitation Vent Pression Humidité
    00:00 +9°C° 0 mm 2 m/s 758 mmHg 93%
    01:00 +8°C° 0 mm 2 m/s 758 mmHg 95%
    02:00 +8°C° 0 mm 2 m/s 757 mmHg 95%
    03:00 +8°C° 0 mm 2 m/s 757 mmHg 95%
    04:00 +8°C° 0 mm 2 m/s 757 mmHg 95%
    05:00 +7°C° 0 mm 2 m/s 757 mmHg 95%
    06:00 +7°C° 0 mm 2 m/s 758 mmHg 95%
    07:00 +7°C° 0 mm 2 m/s 758 mmHg 95%
    08:00 +9°C° 0 mm 3 m/s 758 mmHg 88%
    09:00 +11°C° 0 mm 3 m/s 758 mmHg 81%
    10:00 +13°C° 0 mm 4 m/s 758 mmHg 73%
    11:00 +14°C° 0 mm 4 m/s 758 mmHg 68%
    12:00 +15°C° 0 mm 4 m/s 757 mmHg 63%
    13:00 +17°C° 0 mm 4 m/s 757 mmHg 58%
    14:00 +17°C° 0 mm 4 m/s 757 mmHg 60%
    15:00 +17°C° 0 mm 4 m/s 757 mmHg 62%
    16:00 +15°C° 0 mm 4 m/s 756 mmHg 63%
    17:00 +13°C° 0 mm 4 m/s 757 mmHg 70%
    18:00 +12°C° 0 mm 4 m/s 757 mmHg 77%
    19:00 +10°C° 0 mm 3 m/s 757 mmHg 83%
    20:00 +9°C° 0 mm 3 m/s 758 mmHg 85%
    21:00 +9°C° 0 mm 3 m/s 758 mmHg 88%
    22:00 +9°C° 0 mm 3 m/s 758 mmHg 90%
    23:00 +8°C° 0 mm 3 m/s 758 mmHg 91%

    25 Mai, Vendredi

    Heure Température Précipitation Vent Pression Humidité
    00:00 +8°C° 0 mm 3 m/s 758 mmHg 92%
    01:00 +8°C° 0 mm 2 m/s 758 mmHg 93%
    02:00 +7°C° 0 mm 2 m/s 758 mmHg 93%
    03:00 +7°C° 0 mm 2 m/s 758 mmHg 93%
    04:00 +7°C° 0 mm 2 m/s 758 mmHg 93%
    05:00 +7°C° 0 mm 2 m/s 758 mmHg 93%
    06:00 +6°C° 0 mm 2 m/s 758 mmHg 93%
    07:00 +6°C° 0 mm 2 m/s 759 mmHg 92%
    08:00 +8°C° 0 mm 2 m/s 759 mmHg 85%
    09:00 +10°C° 0 mm 2 m/s 759 mmHg 77%
    10:00 +13°C° 0 mm 2 m/s 759 mmHg 69%
    11:00 +15°C° 0 mm 2 m/s 758 mmHg 66%
    12:00 +16°C° 0 mm 2 m/s 758 mmHg 63%
    13:00 +18°C° 0 mm 2 m/s 757 mmHg 60%
    14:00 +18°C° 0 mm 2 m/s 757 mmHg 61%
    15:00 +18°C° 0 mm 2 m/s 757 mmHg 62%
    16:00 +19°C° 0 mm 1 m/s 757 mmHg 62%
    17:00 +16°C° 0 mm 1 m/s 757 mmHg 69%
    18:00 +14°C° 0 mm 1 m/s 758 mmHg 75%
    19:00 +12°C° 0 mm 1 m/s 758 mmHg 82%
    20:00 +11°C° 0 mm 1 m/s 758 mmHg 84%
    21:00 +11°C° 0 mm 1 m/s 758 mmHg 85%
    22:00 +10°C° 0 mm 2 m/s 759 mmHg 87%
    23:00 +9°C° 0 mm 2 m/s 758 mmHg 88%

    26 Mai, Samedi

    Heure Température Précipitation Vent Pression Humidité
    00:00 +9°C° 0 mm 2 m/s 758 mmHg 89%
    01:00 +8°C° 0 mm 2 m/s 758 mmHg 90%
    02:00 +8°C° 0 mm 2 m/s 758 mmHg 90%
    03:00 +8°C° 0 mm 2 m/s 758 mmHg 91%
    04:00 +8°C° 0 mm 2 m/s 758 mmHg 92%
    05:00 +8°C° 0 mm 2 m/s 758 mmHg 92%
    06:00 +7°C° 0 mm 2 m/s 758 mmHg 92%
    07:00 +7°C° 0 mm 3 m/s 758 mmHg 93%
    08:00 +9°C° 0 mm 3 m/s 759 mmHg 86%
    09:00 +11°C° 0 mm 3 m/s 759 mmHg 79%
    10:00 +13°C° 0 mm 4 m/s 759 mmHg 73%
    11:00 +15°C° 0 mm 4 m/s 758 mmHg 69%
    12:00 +17°C° 0 mm 4 m/s 758 mmHg 64%
    13:00 +19°C° 0 mm 3 m/s 757 mmHg 60%
    14:00 +19°C° 0 mm 3 m/s 757 mmHg 61%
    15:00 +19°C° 0 mm 3 m/s 756 mmHg 61%
    16:00 +19°C° 0 mm 2 m/s 756 mmHg 62%
    17:00 +17°C° 0 mm 2 m/s 756 mmHg 68%
    18:00 +15°C° 0 mm 2 m/s 756 mmHg 74%
    19:00 +14°C° 0 mm 2 m/s 757 mmHg 80%
    20:00 +13°C° 0 mm 2 m/s 757 mmHg 80%
    21:00 +12°C° 0 mm 3 m/s 757 mmHg 80%
    22:00 +12°C° 0 mm 3 m/s 757 mmHg 80%
    23:00 +12°C° 0 mm 3 m/s 756 mmHg 81%

    27 Mai, Dimanche

    Heure Température Précipitation Vent Pression Humidité
    00:00 +11°C° 0 mm 3 m/s 756 mmHg 81%
    01:00 +11°C° 0 mm 3 m/s 756 mmHg 81%
    02:00 +11°C° 0 mm 3 m/s 756 mmHg 81%
    03:00 +11°C° 0 mm 3 m/s 756 mmHg 81%
    04:00 +11°C° 0 mm 3 m/s 756 mmHg 81%
    05:00 +11°C° 0 mm 4 m/s 756 mmHg 81%
    06:00 +11°C° 0 mm 4 m/s 756 mmHg 81%
    07:00 +11°C° 0 mm 4 m/s 756 mmHg 81%
    08:00 +12°C° 0 mm 4 m/s 756 mmHg 76%
    09:00 +13°C° 0 mm 4 m/s 756 mmHg 72%
    10:00 +14°C° 0 mm 4 m/s 756 mmHg 68%
    11:00 +15°C° 0 mm 4 m/s 755 mmHg 65%
    12:00 +18°C° 0 mm 4 m/s 755 mmHg 63%
    13:00 +19°C° 0 mm 4 m/s 754 mmHg 61%
    14:00 +19°C° 0 mm 4 m/s 754 mmHg 62%
    15:00 +19°C° 0 mm 3 m/s 754 mmHg 63%
    16:00 +19°C° 0 mm 3 m/s 754 mmHg 65%
    17:00 +18°C° 0,2 mm 3 m/s 754 mmHg 71%
    18:00 +16°C° 0,2 mm 3 m/s 754 mmHg 76%
    19:00 +14°C° 0,2 mm 3 m/s 754 mmHg 82%
    20:00 +14°C° 0,1 mm 3 m/s 754 mmHg 83%
    21:00 +14°C° 0,1 mm 3 m/s 754 mmHg 84%
    22:00 +13°C° 0,1 mm 4 m/s 754 mmHg 85%
    23:00 +13°C° 0,1 mm 3 m/s 754 mmHg 87%
    Voir plus